TimeCEST,TemperatureF,Dew PointF,Humidity,Sea Level PressureIn,VisibilityMPH,Wind Direction,Wind SpeedMPH,Gust SpeedMPH,PrecipitationIn,Events,Conditions,WindDirDegrees,DateUTC
12:20 AM,69.8,57.2,64,29.98,-9999.0,SSW,2.3,-,N/A,,Clear,210,2013-08-11 22:20:00
12:50 AM,69.8,59.0,68,30.01,-9999.0,SW,4.6,-,N/A,,Clear,220,2013-08-11 22:50:00
1:20 AM,69.8,59.0,68,30.01,-9999.0,SSW,5.8,-,N/A,,Clear,200,2013-08-11 23:20:00
1:50 AM,71.6,59.0,64,30.01,-9999.0,SSW,5.8,-,N/A,,Clear,200,2013-08-11 23:50:00
2:20 AM,69.8,57.2,64,30.01,-9999.0,South,5.8,-,N/A,,Clear,190,2013-08-12 00:20:00
2:50 AM,69.8,59.0,68,30.01,-9999.0,South,4.6,-,N/A,,Clear,190,2013-08-12 00:50:00
3:20 AM,69.8,59.0,68,30.01,-9999.0,SSW,5.8,-,N/A,,Clear,200,2013-08-12 01:20:00
3:50 AM,69.8,59.0,68,30.01,-9999.0,South,3.5,-,N/A,,Clear,190,2013-08-12 01:50:00
4:20 AM,69.8,57.2,64,30.01,-9999.0,SSW,5.8,-,N/A,,Clear,200,2013-08-12 02:20:00
4:50 AM,68.0,59.0,73,30.01,-9999.0,WSW,4.6,-,N/A,,Clear,240,2013-08-12 02:50:00
5:20 AM,68.0,59.0,73,29.98,-9999.0,SSW,4.6,-,N/A,,Clear,210,2013-08-12 03:20:00
5:50 AM,68.0,59.0,73,30.01,-9999.0,South,4.6,-,N/A,,Clear,190,2013-08-12 03:50:00
6:20 AM,68.0,57.2,68,30.01,-9999.0,SSW,3.5,-,N/A,,Clear,200,2013-08-12 04:20:00
6:50 AM,66.2,59.0,78,30.01,-9999.0,SW,3.5,-,N/A,,Clear,220,2013-08-12 04:50:00
7:20 AM,68.0,59.0,73,30.01,-9999.0,SW,3.5,-,N/A,,Clear,220,2013-08-12 05:20:00
7:50 AM,71.6,59.0,64,30.01,-9999.0,SW,5.8,-,N/A,,Clear,230,2013-08-12 05:50:00
8:20 AM,75.2,60.8,61,30.01,-9999.0,SW,5.8,-,N/A,,Clear,220,2013-08-12 06:20:00
8:50 AM,78.8,59.0,51,30.01,-9999.0,WSW,4.6,-,N/A,,Clear,240,2013-08-12 06:50:00
9:20 AM,82.4,57.2,42,30.01,-9999.0,SW,3.5,-,N/A,,Clear,230,2013-08-12 07:20:00
9:50 AM,84.2,57.2,40,30.01,-9999.0,Variable,3.5,-,N/A,,Clear,0,2013-08-12 07:50:00
10:20 AM,87.8,55.4,33,30.01,-9999.0,Variable,3.5,-,N/A,,Clear,0,2013-08-12 08:20:00
10:50 AM,87.8,53.6,31,30.01,-9999.0,NNE,9.2,-,N/A,,Clear,30,2013-08-12 08:50:00
11:20 AM,86.0,60.8,43,30.01,-9999.0,NE,12.7,-,N/A,,Clear,50,2013-08-12 09:20:00
11:50 AM,86.0,59.0,40,30.01,-9999.0,NE,12.7,-,N/A,,Clear,40,2013-08-12 09:50:00
12:20 PM,87.8,59.0,38,30.01,-9999.0,NE,13.8,-,N/A,,Clear,40,2013-08-12 10:20:00
12:50 PM,86.0,59.0,40,30.01,-9999.0,NE,13.8,-,N/A,,Clear,40,2013-08-12 10:50:00
1:20 PM,87.8,60.8,40,30.01,-9999.0,NE,12.7,-,N/A,,Clear,50,2013-08-12 11:20:00
1:50 PM,87.8,64.4,46,30.01,-9999.0,NE,13.8,-,N/A,,Clear,40,2013-08-12 11:50:00
2:20 PM,87.8,60.8,40,30.01,-9999.0,NE,12.7,-,N/A,,Clear,50,2013-08-12 12:20:00
2:50 PM,87.8,62.6,43,30.01,-9999.0,NE,12.7,-,N/A,,Clear,40,2013-08-12 12:50:00
3:20 PM,87.8,57.2,35,30.01,-9999.0,NE,12.7,-,N/A,,Clear,40,2013-08-12 13:20:00
3:50 PM,87.8,59.0,38,30.01,-9999.0,ENE,10.4,-,N/A,,Clear,60,2013-08-12 13:50:00
4:20 PM,86.0,66.2,51,29.98,-9999.0,NE,10.4,-,N/A,,Clear,50,2013-08-12 14:20:00
4:50 PM,87.8,64.4,46,29.98,6.2,NE,10.4,-,N/A,,Partly Cloudy,50,2013-08-12 14:50:00
5:20 PM,87.8,59.0,38,29.98,6.2,NE,9.2,-,N/A,,Partly Cloudy,50,2013-08-12 15:20:00
5:50 PM,86.0,62.6,45,29.98,6.2,NNE,10.4,-,N/A,,Partly Cloudy,30,2013-08-12 15:50:00
6:20 PM,87.8,64.4,46,29.98,6.2,NE,9.2,-,N/A,,Partly Cloudy,40,2013-08-12 16:20:00
6:50 PM,86.0,64.4,48,29.98,6.2,NE,9.2,-,N/A,,Partly Cloudy,40,2013-08-12 16:50:00
7:20 PM,86.0,66.2,51,29.98,6.2,NE,6.9,-,N/A,,Partly Cloudy,50,2013-08-12 17:20:00
7:50 PM,84.2,66.2,55,29.98,-9999.0,NE,5.8,-,N/A,,Clear,40,2013-08-12 17:50:00
8:20 PM,80.6,66.2,61,29.98,-9999.0,NE,5.8,-,N/A,,Clear,50,2013-08-12 18:20:00
8:50 PM,78.8,68.0,69,29.98,-9999.0,NE,5.8,-,N/A,,Clear,40,2013-08-12 18:50:00
9:20 PM,77.0,66.2,69,29.98,-9999.0,NNE,3.5,-,N/A,,Clear,20,2013-08-12 19:20:00
9:50 PM,77.0,68.0,74,30.01,-9999.0,Variable,2.3,-,N/A,,Clear,0,2013-08-12 19:50:00
10:20 PM,75.2,69.8,83,30.01,-9999.0,East,3.5,-,N/A,,Clear,90,2013-08-12 20:20:00
10:50 PM,73.4,66.2,78,30.01,-9999.0,Variable,2.3,-,N/A,,Clear,0,2013-08-12 20:50:00
11:20 PM,71.6,64.4,78,30.01,-9999.0,Calm,Calm,-,N/A,,Clear,0,2013-08-12 21:20:00
11:50 PM,71.6,60.8,69,30.01,-9999.0,SW,5.8,-,N/A,,Clear,220,2013-08-12 21:50:00